Location: Antioch Baptist Church
(32.6696°N, 85.7327°W)
Time: 12:00:18
(UTC+00:00)

ATLAS 2AS CENTAUR R/B - Pass Details

Date: 14 July 2020
Orbit: 930 x 1282 km, 63.7° (Epoch: 19 July)

Event Time Altitude Azimuth Distance (km) Brightness Sun altitude
Rises 03:30:40 0° 329° (NNW) 4,095 7.1 -26.5°
Reaches altitude 10° 03:33:31 10° 330° (NNW) 3,081 6.1 -26.8°
Maximum altitude 03:40:52 87° 243° (WSW) 1,098 2.6 -27.7°
Enters shadow 03:41:53 68° 159° (SSE) 1,158 2.5 -27.8°
